Weather Roundup
Issued by NWS

Home | Current Version | Previous Version | Text Only | Print | Product List | Glossary On
Versions: 1 2 3 4 5 6 7 8 9 10 11 12 13 14 15 16 17 18 19 20 21 22 23 24 25 26 27 28 29 30 31 32 33 34 35 36 37 38 39 40 41 42 43 44 45 46 47 48 49 50
000
NZUS93 KARX 251510
HRRWXR

CURRENT HOURLY OBSERVATIONS ACROSS
MUCH OF THE UPPER MISSISSIPPI VALLEY
NATIONAL WEATHER SERVICE LA CROSSE WI
1000 AM CDT THU AUG 25 2016


...SOUTHEAST MINNESOTA...


CITY           SKY/WX    TMP DP  RH WIND       PRES   REMARKS
ROCHESTER      SUNNY     72  61  68 SW8       30.07R
ROCHESTER/MAYO FAIR      71  58  62 SW7       30.06R
WINONA         SUNNY     72  61  68 CALM      30.04R
AUSTIN         SUNNY     72  57  60 W7        30.08R
ALBERT LEA     SUNNY     70  57  64 W8        30.08R
DODGE CENTER   SUNNY     73  59  60 W8        30.06R
PRESTON        SUNNY     70  58  65 W6        30.08R
OWATONNA       SUNNY     68  59  73 W12       30.07R
FARIBAULT      SUNNY     68  61  77 W7        30.06R
$$

...ELSEWHERE IN MINNESOTA...


CITY           SKY/WX    TMP DP  RH WIND       PRES   REMARKS
MINNEAPOLIS    MOSUNNY   70  56  61 NW13      30.03R
INTNL FALLS      N/A     58  54  86 W13       29.88R
DULUTH         MOSUNNY   68  54  60 W17G24    29.94S
RED WING       SUNNY     73  61  64 W6        30.01S
REDWOOD FALLS  CLOUDY    63  53  70 W14       30.09R
MANKATO        MOSUNNY   66  55  68 NW10      30.08R
WORTHINGTON    CLOUDY    63  54  72 NW9       30.14R
FAIRMONT       CLOUDY    65  55  70 NW9       30.11R
$$

...SOUTHWEST WISCONSIN...


CITY           SKY/WX    TMP DP  RH WIND       PRES   REMARKS
LA CROSSE      SUNNY     72 N/A N/A SE3       30.04R
PRAIRIE DU CHI CLOUDY    70  59  67 CALM      30.06R
BOSCOBEL       SUNNY     75  62  64 CALM      30.06R
LONE ROCK      SUNNY     73  61  65 VRB3      30.05R
PLATTEVILLE    SUNNY     72  64  77 N6        30.06R
FORT MC COY    CLOUDY    67  62  84 CALM      30.05R
CAMP DOUGLAS   PTSUNNY   68  63  83 W3        30.04R
MAUSTON-NEW LI CLOUDY    69  61  75 W3        30.04R
VIROQUA        FAIR      70  61  74 CALM      30.07R
WIS DELLS      SUNNY     70  57  63 CALM      30.04S
$$

...ELSEWHERE IN WISCONSIN...


CITY           SKY/WX    TMP DP  RH WIND       PRES   REMARKS
MILWAUKEE      CLOUDY    75  65  70 NW9       30.00R
MADISON        MOSUNNY   73  62  68 N5        30.03R
GREEN BAY      MOSUNNY   70  63  78 NW5       30.00R
EAU CLAIRE     SUNNY     72  60  66 SW9       30.00F
BLACK RVR FLS  FAIR      72  60  66 SW3       30.03R
MEDFORD        SUNNY     67  60  76 W6        30.01S
WAUSAU         SUNNY     70  59  68 NW7       30.00S
WIS RAPIDS     MOSUNNY   68  61  78 W5        30.04R
MARSHFIELD     SUNNY     71  59  65 W8        30.02S
RICE LAKE      SUNNY     70  59  68 SW6       30.01S
$$

...NORTHEAST IOWA...


CITY           SKY/WX    TMP DP  RH WIND       PRES   REMARKS
WATERLOO       CLOUDY    70  62  76 SW3       30.08R
DUBUQUE        SUNNY     72  62  71 N5        30.07R
DECORAH        SUNNY     70  61  73 CALM      30.07R
MASON CITY     SUNNY     71  59  65 W5        30.11R
CHARLES CITY   SUNNY     72  63  73 VRB6      30.10R
OELWEIN        MOSUNNY   72  63  73 VRB5      30.09R
$$

...ELSEWHERE IN IOWA...


CITY           SKY/WX    TMP DP  RH WIND       PRES   REMARKS
DES MOINES     CLOUDY    71  62  73 N6        30.10R
IOWA CITY      CLOUDY    72  61  68 N8        30.08R
FORT DODGE     CLOUDY    68  59  73 CALM      30.12R
MARSHALLTOWN   PTSUNNY   72  64  76 N6        30.09R
CEDAR RAPIDS   PTSUNNY   75  64  68 N6        30.06R
$$

...NORTHERN ILLINOIS...


CITY           SKY/WX    TMP DP  RH WIND       PRES   REMARKS
CHICAGO-OHARE  CLOUDY    74  69  85 NW9       30.00R
CHICAGO-MIDWAY CLOUDY    75  70  84 W9        30.00S
MOLINE         MOSUNNY   75  64  68 NE3       30.04R
ROCKFORD       MOSUNNY   75  63  66 N9        30.03S
PEORIA         PTSUNNY   76  72  87 W3        30.05R
$$

NOTE: "FAIR" INDICATES FEW OR NO CLOUDS BELOW 12,000 FEET WITH NO
SIGNIFICANT WEATHER AND/OR OBSTRUCTIONS TO VISIBILITY. WIND
SPEEDS ARE IN MILES-PER-HOUR.




USA.gov is the U.S. government's official web portal to all federal, state and local government web resources and services.